Regional Weather Roundup
Issued by NWS Upton, NY

Current Version | Previous Version | Text Only | Print | Product List | Glossary On
Versions: 1 2 3 4 5 6 7 8 9 10 11 12 13 14 15 16 17 18 19 20 21 22 23 24 25 26 27 28 29 30 31 32 33 34 35 36 37 38 39 40 41 42 43 44 45 46 47 48 49 50
000
ASUS41 KOKX 161908
RWROKX

REGIONAL WEATHER ROUNDUP
NATIONAL WEATHER SERVICE NEW YORK NY
200 PM EST SAT DEC 16 2017

NOTE: "FAIR" INDICATES FEW OR NO CLOUDS BELOW 12,000 FEET WITH NO
SIGNIFICANT WEATHER AND/OR OBSTRUCTIONS TO VISIBILITY.

NYZ071-072-176-178-NJZ106-104-162000-
NEW YORK CITY METRO AREA

CITY           SKY/WX    TMP DP  RH WIND       PRES   REMARKS
Central Park   CLOUDY    36  21  54 VRB3G20   30.00S
Bronx Bot Gard   N/A     36  21  55 W8        29.99R WCI  29
Bronx Lehman C   N/A     36  23  60 W8          N/A  WCI  29
LaGuardia APRT PTSUNNY   38  22  52 W16       29.98S WCI  29
Queens College   N/A     37  23  56 W14         N/A  WCI  29
Kennedy INTL   PTSUNNY   37  25  61 W14       30.00F WCI  28
Breezy Point     N/A     37 N/A N/A W14G21      N/A  WCI  29
Brooklyn Coll    N/A     37  23  56 SW13        N/A  WCI  29
Staten Island    N/A     37  25  60 SW8         N/A  WCI  31
Newark/Liberty CLOUDY    37  23  56 SW20G26   29.99F WCI  27
Teterboro      CLOUDY    36  22  56 SW8       29.98S WCI  30
$$

NYZ177-179-078>081-162000-
LONG ISLAND NEW YORK

CITY           SKY/WX    TMP DP  RH WIND       PRES   REMARKS
Jones Beach      N/A     37 N/A N/A W17G24      N/A  WCI  28
Wantagh          N/A     37  25  60 SW16        N/A  WCI  28
Matinecock PT    N/A     37 N/A N/A SW29        N/A  WCI  25
Farmingdale    SUNNY     37  22  54 W17G24    29.98S WCI  27
MacArthur/ISP  PTSUNNY   37  23  56 W15G23    29.97S WCI  28
Shirley        MOSUNNY   37  23  56 W17G29    29.97F WCI  27
Mt Sinai Harb    N/A    N/A N/A N/A W10G18      N/A
Westhampton    SUNNY     37  20  50 W12G24    29.97S WCI  29
East Hampton   FAIR      36  21  55 W13G21    29.95F WCI  27
Southold         N/A     37  25  60 W8          N/A  WCI  31
Montauk          N/A     38  24  57 W17G31    29.95F WCI  28
$$

NYZ052-065-067-162000-
HUDSON VALLEY

CITY           SKY/WX    TMP DP  RH WIND       PRES   REMARKS
White Plains   PTSUNNY   34  20  56 W13G23    29.94F WCI  25
Larchmont Harb   N/A     36 N/A N/A SW24G31     N/A  WCI  24
Croton On Huds   N/A     34 N/A N/A SW9         N/A  WCI  26
Somers           N/A     32  21  64 SW8         N/A  WCI  25
Brewster         N/A     32  21  64 SW2         N/A
Newburgh       MOSUNNY   32  23  69 W12G21    29.94S WCI  23
Montgomery     PTSUNNY   31  20  63 SW8       29.93R WCI  23
Otisville        N/A     30  21  69 SW3         N/A
Warwick          N/A     32  21  64 SW13        N/A  WCI  22
Suffern          N/A     34  21  60 W6          N/A  WCI  29
Poughkeepsie   PTSUNNY   32  20  61 W12       29.95S WCI  23
Albany         FLURRIES  29  19  66 NW6       29.95R WCI  23
$$

NJZ001-105-106-008-010-013-015-019>022-104-162000-
NEW JERSEY

CITY           SKY/WX    TMP DP  RH WIND       PRES   REMARKS
Newark/Liberty CLOUDY    37  23  56 SW20G26   29.99F WCI  27
Teterboro      CLOUDY    36  22  56 SW8       29.98S WCI  30
Caldwell       CLOUDY    34  20  56 VRB6      29.99F WCI  29
Somerville     CLOUDY    37  24  59 VRB5      29.98F WCI  33
Linden         CLOUDY    37  22  54 W9G21     30.00S WCI  31
Perth Amboy      N/A     37 N/A N/A SW15        N/A  WCI  28
Sussex         CLOUDY    32  21  64 SW9       29.95R WCI  24
Andover        NOT AVBL
Trenton        CLOUDY    40  23  50 W14G26    30.01S WCI  32
Millville      PTSUNNY   42  26  53 W12G24    30.07S
Atlantic City  MOSUNNY   42  26  53 W16G26    30.06S
Wrightstown    CLOUDY    39  24  55 W18G28    30.00S WCI  30
Toms River     CLOUDY    41  27  57 W14       30.04S
Belmar         CLOUDY    38  24  57 SW13G18   30.03S WCI  30
$$

PAZ047>061-062-071-162000-
EASTERN PENNSYLVANIA

CITY           SKY/WX    TMP DP  RH WIND       PRES   REMARKS
Philadelphia   PTSUNNY   41  24  51 SW18G25   30.05F
Allentown      CLOUDY    36  23  59 SW12      29.98F WCI  28
Scranton       CLOUDY    32  23  69 SW9       29.93R WCI  24
$$

CTZ002-004>006-009-010-012-RIZ004-006-007-MAZ004-011-015-162000-
SOUTHERN NEW ENGLAND
 IN CT

CITY           SKY/WX    TMP DP  RH WIND       PRES   REMARKS
Bradley INTL   CLOUDY    32  19  58 W9        29.93R WCI  24
Hartford       CLOUDY    34  20  56 W8        29.94S WCI  27
Danbury        CLOUDY    33  20  58 W9        29.95S WCI  25
Wtrbury/Oxford CLOUDY    31  20  63 W9G17     29.92F WCI  23
Norwalk Harbor   N/A     34 N/A N/A W17         N/A  WCI  23
Bridgeport     PTSUNNY   36  21  54 W12       29.97S WCI  28
Meriden        CLOUDY    34  19  54 W8        29.95S WCI  27
New Haven      PTSUNNY   36  21  54 W8G17     29.96S WCI  30
Chester        FAIR      34  19  55 W8G14     29.92F WCI  27
Groton         CLOUDY    36  20  52 W13       29.94F WCI  27
Wilimantic     CLOUDY    34  18  52 W9        29.93S WCI  27

 IN RI

CITY           SKY/WX    TMP DP  RH WIND       PRES   REMARKS
Providence     CLOUDY    32  18  56 W14       29.93F WCI  22
Block Island   CLOUDY    36  24  62 W16G28    29.94S WCI  26
Westerly       CLOUDY    36  22  56 SW12      29.94F WCI  28
 IN MA

CITY           SKY/WX    TMP DP  RH WIND       PRES   REMARKS
Boston         PTSUNNY   32  13  45 W16G26    29.89S WCI  21
Worcester      CLOUDY    26  13  57 W14       29.86R WCI  14
Westfield      CLOUDY    32  17  54 W9        29.91R WCI  24
Provincetown   MOSUNNY   33  18  53 MISG      29.89S
Nantucket      SUNNY     34  21  59 W20G32    29.91F WCI  23
$$

ANZ330-335-338-340-345-350-353-355-162000-
COASTAL MARINE OBSERVATIONS


STATION/POSITION TIME  SKY/WX   TEMP    WIND        PRES    VSBY  WAVE
                                AIR SEA DIR/SP/G                  HT/PER
                 (UTC)          (F)     (DEG/KT/KT) (MB)    (MI)  (FT/S)
NY HARB ENTRANCE 1750            38 51  260/ 17/ 23 1015.8          3/ 5
20 S FIRE ISLAND 1750            39 51  270/ 23/ 29 1016.0          7/ 7
GREAT SOUTH BAY  NOT AVBL
HUDSON CANYON    1850            43 55  280/ 25/ 31 1016.1          8/ 7
KINGS POINT      1824            37 42  300/ 16/ 23 1016.0
EXECUTION ROCKS  1830            38     220/ 19/ 25   N/A
WESTERN LI SOUND NOT AVBL
CENTRAL LI SOUND NOT AVBL
ROBBINS REEF     1848            38     250/ 17/ 22 1016.1
$$


>>>>>>>>>>>>>>>>>>>>>>>>>>>> KEY <<<<<<<<<<<<<<<<<<<<<<<<<<<
>                                                          <
>     SKY/WX - Sky Condition/Present Weather               <
>     TMP    - Temperature in Fahrenheit                   <
>     DP     - Dew Point in Fahrenheit                     <
>     RH     - Relative Humidity in Percent                <
>     WIND   - Direction (from) and Speed in MPH           <
>     PRES   - Mean Sea Level Pressure (inches of Hg)      <
>     WCI    - Wind Chill Index                            <
>     VSB    - VISIBILITY IN MILES                         <
>     HX     - HEAT INDEX                                  <
>     TC     - TEMPERATURE IN CELSIUS                      <
>     VRB    - VARIABLE WIND DIRECTION                     <
>                                                          <
>>>>>>>>>>>>>>>>>>>>>>>>>>>> KEY <<<<<<<<<<<<<<<<<<<<<<<<<<<



USA.gov is the U.S. government's official web portal to all federal, state and local government web resources and services.